TimeMDT,TemperatureF,Dew PointF,Humidity,Sea Level PressureIn,VisibilityMPH,Wind Direction,Wind SpeedMPH,Gust SpeedMPH,PrecipitationIn,Events,Conditions,WindDirDegrees,DateUTC
12:53 AM,50.0,41.0,71,29.97,10.0,NE,3.5,-,N/A,,Clear,50,2011-10-01 06:53:00
1:00 AM,-9999,-9999,N/A,-9999,-9999.0,North,-9999.0,-,N/A,,Unknown,0,2011-10-01 07:00:00
1:53 AM,50.0,39.9,68,29.98,10.0,Calm,Calm,-,N/A,,Clear,0,2011-10-01 07:53:00
2:53 AM,52.0,37.9,59,29.97,10.0,East,6.9,-,N/A,,Clear,80,2011-10-01 08:53:00
3:53 AM,48.0,37.9,68,29.96,10.0,NE,4.6,-,N/A,,Clear,50,2011-10-01 09:53:00
4:53 AM,46.9,37.9,71,29.96,10.0,NE,5.8,-,N/A,,Clear,50,2011-10-01 10:53:00
5:53 AM,46.0,37.9,73,29.99,10.0,NE,3.5,-,N/A,,Clear,50,2011-10-01 11:53:00
6:53 AM,46.0,37.0,71,30.00,10.0,East,4.6,-,N/A,,Clear,80,2011-10-01 12:53:00
7:53 AM,46.0,37.0,71,30.04,10.0,NE,4.6,-,N/A,,Clear,50,2011-10-01 13:53:00
8:53 AM,50.0,37.9,63,30.05,10.0,Calm,Calm,-,N/A,,Clear,0,2011-10-01 14:53:00
9:53 AM,57.0,41.0,55,30.05,10.0,ENE,4.6,-,N/A,,Clear,60,2011-10-01 15:53:00
10:53 AM,66.9,45.0,45,30.03,10.0,Calm,Calm,-,N/A,,Clear,0,2011-10-01 16:53:00
11:53 AM,73.9,42.1,32,30.00,10.0,South,3.5,-,N/A,,Clear,190,2011-10-01 17:53:00
12:53 PM,79.0,36.0,21,29.98,10.0,SSW,10.4,-,N/A,,Clear,200,2011-10-01 18:53:00
1:53 PM,80.1,37.9,22,29.97,10.0,SSW,11.5,-,N/A,,Clear,200,2011-10-01 19:53:00
2:53 PM,82.0,36.0,19,29.93,10.0,SW,8.1,-,N/A,,Clear,220,2011-10-01 20:53:00
3:53 PM,82.0,35.1,18,29.93,10.0,WSW,13.8,21.9,N/A,,Clear,240,2011-10-01 21:53:00
4:53 PM,82.0,37.0,20,29.92,10.0,SSW,11.5,-,N/A,,Clear,200,2011-10-01 22:53:00
5:53 PM,79.0,37.0,22,29.93,10.0,WSW,12.7,-,N/A,,Partly Cloudy,240,2011-10-01 23:53:00
6:53 PM,73.9,39.0,28,29.94,10.0,SSW,5.8,-,N/A,,Clear,210,2011-10-02 00:53:00
7:53 PM,68.0,39.9,36,29.96,10.0,SSE,4.6,-,N/A,,Clear,160,2011-10-02 01:53:00
8:53 PM,68.0,41.0,37,29.96,10.0,SSE,6.9,-,N/A,,Clear,160,2011-10-02 02:53:00
9:53 PM,69.1,39.9,35,29.95,10.0,South,8.1,-,N/A,,Clear,180,2011-10-02 03:53:00
10:53 PM,69.1,39.9,35,29.93,10.0,South,9.2,-,N/A,,Clear,180,2011-10-02 04:53:00
11:53 PM,66.9,41.0,39,29.91,10.0,South,8.1,-,N/A,,Clear,190,2011-10-02 05:53:00